DECAYED

STARLINK-30458, 57934 (Decayed)

Orbit data source: Space-Track

STARLINK-30458, 57934 was a payload satellite owned by SpaceX/Seattle (US) in LEO that was launched on Sun, 24 Sep 2023 UTC via an FALCON 9 launch vehicle from the Air Force Eastern Test Range (AFETR). Payload-class satellites include a variety of spacecraft equipped with specific instruments for various scientific and technological missions. These include communications satellites like Starlink; space stations such as the ISS; scientific satellites like the Hubble; Earth observation satellites from companies like Planet Labs, Umbra, and HawkEye 360; GPS; miniature CubeSats for education and research; and military/defense satellites.

Not visible in the next 10 days
Identifier
57934, 2023-147X
Orbit
Decayed
Country
Flag of USUS
Related business
Manufacturer
SpaceX/Seattle
Mission
Decayed Commercial Communications
Bus & Motor
STARLINK V2M, Unknown motor
Mass
730 kg wet, ~700 kg dry
Launch date (UTC)
2023-09-24 (3 years ago)
Launch vehicle
FALCON 9
Launch site
Air Force Eastern Test Range (AFETR)
Object type
Payload
Rocket body
Debris
Shape & HBR
Box + 2 Pan, 17.7 m
Radar Cross Section
33.884 m², Large (>1 m²)

Expand to show TLE details & history
Last TLE update: 9 months ago

TLE from 9 months ago
0 STARLINK-30458
1 57934U 23147X   25279.60486806  .07414349  91127-5  33646-2 0  9999
2 57934  42.9693   4.7182 0020327  13.5244 346.6183 16.20483977114327
Epoch: 2025-10-06T14:31Z
TLE epoch observation values (Epoch: 2025-10-06T14:31:00.600Z)
Latitude
0.00004°
Longitude
131.46002°
Altitude
204.96 km
Speed
7.793 km/s
True Right ascension
00h 18m 52s
True Declination
0° 00' 00"
Sunlit
Object was in full shadow at epoch
Visualization orbit readout
Latitude
Unknown
Longitude
Unknown
Altitude
Unknown
Speed
Unknown
Apparent Right ascension
Unknown
Apparent Declination
Unknown
Sunlit
N/A
Visualization observer readout
Local Sidereal Time
21:29:23
Azimuth
Unknown
Elevation
Unknown
Doppler factor
Unknown
Orbital elements
Apogee altitude
233.679 km
Perigee altitude
206.854 km
Semi-major axis
6,598.403 km
Eccentricity
0.00203
Inclination
42.9693°
RAAN
4.7182°
Arg. of periapsis
13.5244°
True anomaly
346.56426°
Mean anomaly
346.6183°
Eccentric anomaly
346.59129°
Mean motion
4.04935 °/min
Orbital period
88.9 mins
BSTAR
0.0033646
Loading maneuver chart data...
Computing Atmospheric mass density...
Loading historical data...
Loading historical data...
Loading historical data...
Loading historical data...
Loading historical data...
Loading historical data...
Loading historical data...

Documentation

Showing up to 5 results
|